Victorville, CA

6:02 PM PDT on August 31, 2016 (GMT -0700)
Southern California Logistics

Weather History for KVCV - February, 2013

Change the Weather History Date:

Saturday, February 2, 2013

  Actual Average (KSBD) Record (KSBD)
Temperature  
Mean Temperature 52 °F -  
Max Temperature 62 °F 66 °F 75 °F (2015)
Min Temperature 42 °F 40 °F 32 °F (2016)
Degree Days  
Heating Degree Days 13    
Growing Degree Days 2 (Base 50)    
Moisture  
Dew Point 31 °F    
Average Humidity 46    
Maximum Humidity 70    
Minimum Humidity 26    
Precipitation  
Precipitation 0.00 in - - ()
Sea Level Pressure  
Sea Level Pressure 30.26 in    
Wind  
Wind Speed 4 mph (SW)    
Max Wind Speed 10 mph    
Max Gust Speed -    
Visibility 10 miles    
Events Rain    
Averages and records for this station are not official NWS values.
T = Trace of Precipitation, MM = Missing Value Source: NWS Daily Summary

Daily Weather History Graph

Daily Weather History Graph

Search for Another Location

Airport or City:

Trip Planner

Search our weather history database for the weather conditions in past years. The results will help you decide how hot, cold, wet, or windy it might be!

Date:

Astronomy

Feb. 02, 2013 Rise Set
Actual Time 6:46 AM PST 5:20 PM PST
Civil Twilight 6:20 AM PST 5:46 PM PST
Nautical Twilight 5:50 AM PST 6:16 PM PST
Astronomical Twilight 5:20 AM PST 6:46 PM PST
Moon No Moon Rise 10:19 AM PST (2/2)
Length of Visible Light 11h 26m
Length of Day
10h 33m
Waning Gibbous, 58% of the Moon is Illuminated
Feb 2
Waning Gibbous
Feb 3
Last Quarter
Feb 9
New
Feb 17
First Quarter
Feb 25
Full

Hourly Weather History & Observations

Time (PST) Temp. Windchill Dew Point Humidity Pressure Visibility Wind Dir Wind Speed Gust Speed Precip Events Conditions
12:15 AM 44.6 °F 41.4 °F 32.0 °F 61% 30.27 in 10.0 mi SE 5.8 mph - N/A   Clear
12:35 AM 44.6 °F 41.4 °F 32.0 °F 61% 30.27 in 10.0 mi SE 5.8 mph - N/A   Clear
1:15 AM 44.6 °F 40.2 °F 32.0 °F 61% 30.27 in 10.0 mi SE 8.1 mph - N/A   Clear
1:35 AM 42.8 °F 39.3 °F 32.0 °F 66% 30.27 in 10.0 mi South 5.8 mph - N/A   Clear
1:55 AM 42.8 °F 38.6 °F 30.2 °F 61% 30.27 in 10.0 mi SSE 6.9 mph - N/A   Clear
2:15 AM 44.6 °F 42.2 °F 32.0 °F 61% 30.27 in 10.0 mi South 4.6 mph - N/A   Clear
2:35 AM 44.6 °F 42.2 °F 32.0 °F 61% 30.27 in 10.0 mi SSE 4.6 mph - N/A   Clear
2:55 AM 44.6 °F 40.7 °F 32.0 °F 61% 30.26 in 10.0 mi South 6.9 mph - N/A   Clear
3:15 AM 44.6 °F 39.7 °F 30.2 °F 57% 30.26 in 10.0 mi SE 9.2 mph - N/A   Clear
3:35 AM 44.6 °F 42.2 °F 32.0 °F 61% 30.27 in 10.0 mi SE 4.6 mph - N/A   Clear
4:15 AM 44.6 °F 43.1 °F 32.0 °F 61% 30.26 in 10.0 mi East 3.5 mph - N/A   Clear
4:35 AM 42.8 °F 40.1 °F 33.8 °F 70% 30.26 in 10.0 mi SSE 4.6 mph - N/A   Clear
4:55 AM 42.8 °F 40.1 °F 32.0 °F 66% 30.26 in 10.0 mi SSE 4.6 mph - N/A   Clear
5:15 AM 42.8 °F 41.1 °F 32.0 °F 66% 30.27 in 10.0 mi SE 3.5 mph - N/A   Clear
5:35 AM 42.8 °F 39.3 °F 33.8 °F 70% 30.27 in 10.0 mi SE 5.8 mph - N/A   Clear
5:55 AM 42.8 °F 38.6 °F 33.8 °F 70% 30.27 in 10.0 mi SSE 6.9 mph - N/A   Clear
6:15 AM 44.6 °F - 33.8 °F 66% 30.27 in 10.0 mi Calm Calm - N/A   Clear
6:35 AM 44.6 °F - 33.8 °F 66% 30.27 in 10.0 mi Calm Calm - N/A   Clear
6:55 AM 44.6 °F 42.2 °F 33.8 °F 66% 30.28 in 10.0 mi South 4.6 mph - N/A   Clear
7:15 AM 44.6 °F 40.2 °F 33.8 °F 66% 30.30 in 10.0 mi SE 8.1 mph - N/A   Clear
7:35 AM 44.6 °F - 33.8 °F 66% 30.30 in 10.0 mi Calm Calm - N/A   Clear
7:55 AM 44.6 °F - 33.8 °F 66% 30.30 in 10.0 mi Calm Calm - N/A   Scattered Clouds
8:15 AM 46.4 °F - 33.8 °F 62% 30.30 in 10.0 mi Calm Calm - N/A   Scattered Clouds
8:35 AM 48.2 °F - 33.8 °F 58% 30.31 in 10.0 mi Calm Calm - N/A   Scattered Clouds
8:55 AM 48.2 °F - 33.8 °F 58% 30.31 in 10.0 mi Calm Calm - N/A   Scattered Clouds
9:15 AM 50.0 °F - 33.8 °F 54% 30.32 in 10.0 mi Calm Calm - N/A   Scattered Clouds
9:35 AM 51.8 °F - 32.0 °F 47% 30.32 in 10.0 mi Calm Calm - N/A   Scattered Clouds
9:55 AM 51.8 °F - 32.0 °F 47% 30.32 in 10.0 mi Calm Calm - N/A   Scattered Clouds
10:15 AM 53.6 °F - 30.2 °F 41% 30.31 in 10.0 mi Calm Calm - N/A   Scattered Clouds
10:35 AM 53.6 °F - 30.2 °F 41% 30.31 in 10.0 mi Calm Calm - N/A   Unknown
10:55 AM 55.4 °F - 30.2 °F 38% 30.30 in 10.0 mi WNW 3.5 mph - N/A   Unknown
11:15 AM 57.2 °F - 30.2 °F 36% 30.31 in 10.0 mi Calm Calm - N/A   Unknown
11:35 AM 59.0 °F - 30.2 °F 34% 30.30 in 10.0 mi Calm Calm - N/A   Scattered Clouds
11:55 AM 60.8 °F - 30.2 °F 31% 30.29 in 10.0 mi NNW 4.6 mph - N/A   Scattered Clouds
12:15 PM 60.8 °F - 30.2 °F 31% 30.27 in 10.0 mi North 5.8 mph - N/A   Scattered Clouds
12:35 PM 62.6 °F - 30.2 °F 30% 30.26 in 10.0 mi NNW 5.8 mph - N/A   Scattered Clouds
12:55 PM 62.6 °F - 28.4 °F 27% 30.25 in 10.0 mi North 4.6 mph - N/A   Scattered Clouds
1:15 PM 62.6 °F - 28.4 °F 27% 30.24 in 10.0 mi NW 3.5 mph - N/A   Scattered Clouds
1:35 PM 62.6 °F - 28.4 °F 27% 30.24 in 10.0 mi NW 4.6 mph - N/A   Clear
1:55 PM 62.6 °F - 28.4 °F 27% 30.23 in 10.0 mi NNW 4.6 mph - N/A   Scattered Clouds
2:15 PM 62.6 °F - 26.6 °F 26% 30.23 in 10.0 mi Calm Calm - N/A   Clear
2:35 PM 62.6 °F - 26.6 °F 26% 30.23 in 10.0 mi NW 5.8 mph - N/A   Scattered Clouds
2:55 PM 62.6 °F - 26.6 °F 26% 30.23 in 10.0 mi NW 5.8 mph - N/A   Clear
3:15 PM 62.6 °F - 26.6 °F 26% 30.23 in 10.0 mi West 4.6 mph - N/A   Scattered Clouds
3:35 PM 62.6 °F - 26.6 °F 26% 30.23 in 10.0 mi Calm Calm - N/A   Scattered Clouds
4:15 PM 62.6 °F - 26.6 °F 26% 30.22 in 10.0 mi NW 4.6 mph - N/A   Mostly Cloudy
4:35 PM 62.6 °F - 26.6 °F 26% 30.23 in 10.0 mi WNW 3.5 mph - N/A   Overcast
4:55 PM 60.8 °F - 28.4 °F 29% 30.23 in 10.0 mi Calm Calm - N/A   Mostly Cloudy
5:15 PM 60.8 °F - 28.4 °F 29% 30.23 in 10.0 mi Calm Calm - N/A   Overcast
5:35 PM 60.8 °F - 28.4 °F 29% 30.23 in 10.0 mi NW 3.5 mph - N/A   Mostly Cloudy
5:55 PM 59.0 °F - 28.4 °F 31% 30.23 in 10.0 mi NNW 3.5 mph - N/A   Mostly Cloudy
6:15 PM 59.0 °F - 28.4 °F 31% 30.23 in 10.0 mi Calm Calm - N/A   Mostly Cloudy
6:35 PM 57.2 °F - 28.4 °F 33% 30.24 in 10.0 mi Calm Calm - N/A   Mostly Cloudy
6:55 PM 57.2 °F - 28.4 °F 33% 30.24 in 10.0 mi Calm Calm - N/A   Mostly Cloudy
7:15 PM 57.2 °F - 28.4 °F 33% 30.24 in 10.0 mi West 3.5 mph - N/A   Mostly Cloudy
7:35 PM 55.4 °F - 30.2 °F 38% 30.23 in 10.0 mi Calm Calm - N/A   Mostly Cloudy
7:55 PM 55.4 °F - 30.2 °F 38% 30.24 in 10.0 mi SSW 4.6 mph - N/A   Overcast
8:15 PM 55.4 °F - 30.2 °F 38% 30.24 in 10.0 mi SSW 3.5 mph - N/A   Overcast
8:35 PM 55.4 °F - 30.2 °F 38% 30.24 in 10.0 mi SSW 4.6 mph - N/A   Mostly Cloudy
8:55 PM 55.4 °F - 30.2 °F 38% 30.24 in 10.0 mi SW 3.5 mph - N/A   Mostly Cloudy
9:15 PM 55.4 °F - 32.0 °F 41% 30.24 in 10.0 mi SSW 4.6 mph - N/A   Mostly Cloudy
9:35 PM 55.4 °F - 30.2 °F 38% 30.24 in 10.0 mi SSW 4.6 mph - N/A   Overcast
9:55 PM 55.4 °F - 33.8 °F 44% 30.23 in 10.0 mi SW 5.8 mph - N/A Rain Light Rain
10:15 PM 55.4 °F - 35.6 °F 47% 30.23 in 10.0 mi SSW 3.5 mph - N/A Rain Light Rain
10:35 PM 55.4 °F - 33.8 °F 44% 30.22 in 10.0 mi SW 4.6 mph - N/A Rain Light Rain
10:55 PM 53.6 °F - 35.6 °F 51% 30.22 in 10.0 mi SW 6.9 mph - N/A   Light Drizzle
11:15 PM 53.6 °F - 35.6 °F 51% 30.23 in 10.0 mi SW 10.4 mph - N/A Rain Light Rain
11:35 PM 53.6 °F - 37.4 °F 54% 30.23 in 10.0 mi SW 8.1 mph - N/A   Light Drizzle
11:55 PM 51.8 °F - 39.2 °F 62% 30.23 in 10.0 mi West 6.9 mph - N/A Rain Light Rain